Weather History for KCUT - July, 2013

Change the Weather History Date:

Thursday, July 25, 2013

  Actual Average Record
Temperature  
Mean Temperature 65 °F 66 °F  
Max Temperature 76 °F 80 °F 95 °F (1952)
Min Temperature 53 °F 52 °F 38 °F (1950)
Degree Days  
Heating Degree Days 0 2  
Month to date heating degree days 10 54  
Since 1 June heating degree days 203 274  
Since 1 July heating degree days 10 54  
Cooling Degree Days 0 3  
Month to date cooling degree days 61 65  
Year to date cooling degree days 72 91  
Since 1 June cooling degree days 70 90  
Growing Degree Days 13 (Base 50)    
Moisture  
Dew Point 49 °F    
Average Humidity 64    
Maximum Humidity 86    
Minimum Humidity 41    
Precipitation  
Precipitation 0.06 in 0.07 in 1.05 in (1982)
Month to date precipitation 3.39 2.00  
Year to date precipitation 11.57 12.33  
Sea Level Pressure  
Sea Level Pressure 30.05 in    
Wind  
Wind Speed 7 mph (NE)    
Max Wind Speed 15 mph    
Max Gust Speed 22 mph    
Visibility 10 miles    
Events Rain    
T = Trace of Precipitation, MM = Missing Value Source: NWS Daily Summary

Daily Weather History Graph

Daily Weather History Graph

Search for Another Location

Airport or City:

Trip Planner

Search our weather history database for the weather conditions in past years. The results will help you decide how hot, cold, wet, or windy it might be!

Date:

Astronomy

Jul. 25, 2013 Rise Set
Actual Time 5:36 AM MDT 8:25 PM MDT
Civil Twilight 5:02 AM MDT 8:58 PM MDT
Nautical Twilight 4:20 AM MDT 9:40 PM MDT
Astronomical Twilight 3:30 AM MDT 10:29 PM MDT
Moon 9:57 PM MDT (7/25) 9:17 AM MDT (7/25)
Length of Visible Light 15h 55m
Length of Day
14h 48m
Waning Gibbous, 88% of the Moon is Illuminated
Jul 25
Waning Gibbous
Jul 29
Last Quarter
Aug 6
New
Aug 14
First Quarter
Aug 20
Full

Hourly Weather History & Observations

Time (MDT) Temp. Dew Point Humidity Pressure Visibility Wind Dir Wind Speed Gust Speed Precip Events Conditions
12:53 AM 57.0 °F 53.1 °F 87% 29.97 in 10.0 mi Calm Calm - N/A   Partly Cloudy
1:53 AM 61.0 °F 52.0 °F 72% 29.94 in 10.0 mi SSW 4.6 mph - N/A   Scattered Clouds
2:53 AM 60.1 °F 52.0 °F 75% 29.94 in 10.0 mi South 6.9 mph - N/A   Overcast
3:53 AM 62.1 °F 51.1 °F 67% 30.01 in 10.0 mi NW 4.6 mph 16.1 mph 0.00 in   Mostly Cloudy
4:53 AM 57.0 °F 48.9 °F 74% 29.98 in 10.0 mi NNE 6.9 mph - N/A   Mostly Cloudy
5:53 AM 55.9 °F 50.0 °F 80% 30.01 in 10.0 mi Variable 4.6 mph - 0.00 in   Mostly Cloudy
6:53 AM 53.1 °F 50.0 °F 89% 30.07 in 9.0 mi North 5.8 mph - 0.04 in Rain Light Rain
7:53 AM 55.9 °F 53.1 °F 90% 30.01 in 10.0 mi Calm Calm - 0.02 in   Partly Cloudy
8:53 AM 62.1 °F 52.0 °F 70% 30.01 in 10.0 mi NE 4.6 mph - N/A   Clear
9:53 AM 69.1 °F 48.0 °F 47% 30.02 in 10.0 mi North 8.1 mph 17.3 mph N/A   Clear
10:53 AM 72.0 °F 48.9 °F 44% 30.03 in 10.0 mi North 10.4 mph 18.4 mph N/A   Clear
11:53 AM 72.0 °F 46.9 °F 41% 30.04 in 10.0 mi NE 9.2 mph - N/A   Scattered Clouds
12:53 PM 73.9 °F 48.0 °F 40% 30.06 in 10.0 mi Variable 5.8 mph - N/A   Mostly Cloudy
1:53 PM 72.0 °F 48.0 °F 43% 30.05 in 10.0 mi ENE 10.4 mph 19.6 mph N/A   Mostly Cloudy
2:53 PM 72.0 °F 48.9 °F 44% 30.06 in 10.0 mi NE 5.8 mph 17.3 mph N/A   Mostly Cloudy
3:53 PM 72.0 °F 48.0 °F 43% 30.06 in 10.0 mi North 8.1 mph - N/A   Scattered Clouds
4:53 PM 73.9 °F 48.0 °F 40% 30.05 in 10.0 mi North 11.5 mph 16.1 mph N/A   Scattered Clouds
5:53 PM 73.0 °F 48.0 °F 41% 30.06 in 10.0 mi Variable 4.6 mph - N/A   Clear
6:53 PM 70.0 °F 48.0 °F 46% 30.08 in 10.0 mi NE 10.4 mph - N/A   Clear
7:53 PM 66.0 °F 50.0 °F 56% 30.11 in 10.0 mi ENE 8.1 mph - N/A   Clear
8:53 PM 62.1 °F 50.0 °F 65% 30.12 in 10.0 mi East 4.6 mph - N/A   Clear
9:53 PM 60.1 °F 48.0 °F 64% 30.13 in 10.0 mi ENE 4.6 mph - N/A   Partly Cloudy
10:53 PM 57.9 °F 46.9 °F 67% 30.13 in 10.0 mi ENE 6.9 mph - N/A   Mostly Cloudy
11:53 PM 55.9 °F 46.9 °F 72% 30.15 in 10.0 mi NE 6.9 mph - N/A   Clear